Location: North Evanston
(42.0634°N, 87.6976°W)
Time: 05:15:54
(UTC+00:00)

Explorer 11/Cluster Stage 4 - Pass Details

Date: 18 May 2026
Orbit: 463 x 1173 km, 28.8° (Epoch: 7 June)

Event Time Altitude Azimuth Distance (km) Brightness Sun altitude
Rises 03:21:21 0° 235° (SW) 4,006 10.2 -19.8°
Reaches altitude 10° 03:24:51 10° 223° (SW) 2,991 9.4 -20.2°
Enters shadow 03:29:09 23° 190° (S) 2,104 8.3 -20.6°
